Location: Chuathbaluk
(61.5726°N, 159.2454°W)
Time: 12:13:55
(UTC+00:00)

XW-2F - Pass Details

Date: 25 January 2021
Orbit: 500 x 520 km, 97.5° (Epoch: 01 March)

Event Time Altitude Azimuth Distance (km) Brightness Sun altitude
Rises 17:50:02 0° 14° (NNE) 2,665 ? -9.5°
Reaches altitude 10° 17:52:11 10° 9° (N) 1,773 ? -9.3°
Maximum altitude 17:55:53 48° 295° (WNW) 690 ? -8.9°
Drops below altitude 10° 17:59:33 10° 221° (SW) 1,761 ? -8.5°
Sets 18:01:41 0° 215° (SW) 2,645 ? -8.2°
